カタログに戻る

CZ-6A DEB

運用中SSO
NORAD 54926·DEBRIS·🇨🇳 China

打ち上げ Nov 11, 2022 から Taiyuan Satellite Launch Center

Loading…

次のパス (今後24時間)

TLE

最新Source: Space-Track

元期: Sep 14, 2026, 09:10 UTC

1 54926U 22151RP  26257.38228638  .00000488  00000-0  30397-3 0  9994
2 54926  98.8518 245.2959 0063970 100.8930 259.9446 14.08398489196581

AllMySatでCZ-6A DEBをリアルタイム追跡

Download on the App Store